Tracking 29892 objects as of 21-Nov-2024
HD Live streaming from Space Station
objects crossing your sky now

STARLINK-6150

Track STARLINK-6150 now!
10-day predictions
STARLINK-6150 is classified as:


NORAD ID: 57119
Int'l Code: 2023-090U
Perigee: 564.3 km
Apogee: 567.2 km
Inclination: 43.0 °
Period: 95.8 minutes
Semi major axis: 6936 km
RCS: Unknown
Launch date: June 23, 2023
Source: United States (US)
Launch site: AIR FORCE EASTERN TEST RANGE (AFETR)
Your satellite tracking list
Your tracking list is empty




NASA's NSSDC Master Catalog

Two Line Element Set (TLE):
1 57119U 23090U   24325.35814696 -.00025451  00000-0 -18683-2 0  9992
2 57119  43.0041 331.8600 0002129 274.3589  85.7010 15.02684881 79066
Source of the keplerian elements: AFSPC